Time,TemperatureF,DewpointF,PressureIn,WindDirection,WindDirectionDegrees,WindSpeedMPH,WindSpeedGustMPH,Humidity,HourlyPrecipIn,Conditions,Clouds,dailyrainin,SoftwareType,DateUTC
2013-04-28 00:01:00,54.1,50.6,30.00,North,355,0.0,0.0,88,0.00,,---,0.04,VWS V14.00,2013-04-28 05:01:00,
2013-04-28 00:06:00,54.2,50.7,30.00,North,355,0.0,0.0,88,0.00,,---,0.00,VWS V14.00,2013-04-28 05:06:00,
2013-04-28 00:11:00,54.1,50.6,30.00,North,355,0.0,0.0,88,0.00,,---,0.00,VWS V14.00,2013-04-28 05:11:00,
2013-04-28 00:16:00,54.1,50.6,30.00,North,355,0.0,0.0,88,0.00,,---,0.00,VWS V14.00,2013-04-28 05:16:00,
2013-04-28 00:21:00,54.1,50.6,30.00,North,355,0.0,0.0,88,0.00,,---,0.00,VWS V14.00,2013-04-28 05:21:00,
2013-04-28 00:26:00,54.0,50.5,30.00,North,355,0.0,0.0,88,0.00,,---,0.00,VWS V14.00,2013-04-28 05:26:00,
2013-04-28 00:31:00,54.0,50.5,30.00,North,355,0.0,0.0,88,0.00,,---,0.00,VWS V14.00,2013-04-28 05:31:00,
2013-04-28 00:36:00,54.1,50.3,30.00,North,355,0.0,0.0,87,0.00,,---,0.00,VWS V14.00,2013-04-28 05:36:00,
2013-04-28 00:41:00,54.1,50.3,30.00,North,355,0.0,0.0,87,0.00,,---,0.00,VWS V14.00,2013-04-28 05:41:00,
2013-04-28 00:46:00,54.1,50.3,30.00,North,355,0.0,0.0,87,0.00,,---,0.00,VWS V14.00,2013-04-28 05:46:00,
2013-04-28 00:51:00,54.1,50.3,30.00,North,355,0.0,0.0,87,0.00,,---,0.00,VWS V14.00,2013-04-28 05:51:00,
2013-04-28 00:56:00,54.1,50.3,30.00,North,355,0.0,0.0,87,0.00,,---,0.00,VWS V14.00,2013-04-28 05:56:00,
2013-04-28 01:01:00,54.0,50.2,30.00,North,355,0.0,0.0,87,0.00,,---,0.00,VWS V14.00,2013-04-28 06:01:00,
2013-04-28 01:06:00,53.9,50.1,30.00,North,355,0.0,0.0,87,0.00,,---,0.00,VWS V14.00,2013-04-28 06:06:00,
2013-04-28 01:11:00,54.0,50.2,29.99,North,355,0.0,0.0,87,0.00,,---,0.00,VWS V14.00,2013-04-28 06:11:00,
2013-04-28 01:16:00,53.9,50.1,29.99,North,355,0.0,0.0,87,0.00,,---,0.00,VWS V14.00,2013-04-28 06:16:00,
2013-04-28 01:21:00,53.9,49.8,29.99,North,5,0.0,0.0,86,0.00,,---,0.00,VWS V14.00,2013-04-28 06:21:00,
2013-04-28 01:26:00,53.9,49.8,29.99,North,5,0.0,0.0,86,0.00,,---,0.00,VWS V14.00,2013-04-28 06:26:00,
2013-04-28 01:31:00,54.1,50.0,29.99,North,5,0.0,0.0,86,0.00,,---,0.00,VWS V14.00,2013-04-28 06:31:00,
2013-04-28 01:36:00,54.1,50.0,29.99,North,5,0.0,0.0,86,0.00,,---,0.00,VWS V14.00,2013-04-28 06:36:00,
2013-04-28 01:41:00,54.1,50.0,29.99,North,5,0.0,0.0,86,0.00,,---,0.00,VWS V14.00,2013-04-28 06:41:00,
2013-04-28 01:46:00,54.2,50.1,29.99,North,5,0.0,0.0,86,0.00,,---,0.00,VWS V14.00,2013-04-28 06:46:00,
2013-04-28 01:51:00,54.1,50.0,29.99,North,5,0.0,0.0,86,0.00,,---,0.00,VWS V14.00,2013-04-28 06:51:00,
2013-04-28 01:56:00,54.1,50.0,29.99,North,5,0.0,0.0,86,0.00,,---,0.00,VWS V14.00,2013-04-28 06:56:00,
2013-04-28 02:01:00,54.0,49.9,29.99,North,5,0.0,0.0,86,0.00,,---,0.00,VWS V14.00,2013-04-28 07:01:00,
2013-04-28 02:06:00,54.0,49.9,29.99,North,5,0.0,0.0,86,0.00,,---,0.00,VWS V14.00,2013-04-28 07:06:00,
2013-04-28 02:11:00,54.0,49.9,29.99,North,5,0.0,0.0,86,0.00,,---,0.00,VWS V14.00,2013-04-28 07:11:00,
2013-04-28 02:15:00,53.9,50.1,29.99,North,5,0.0,0.0,87,0.00,,---,0.00,VWS V14.00,2013-04-28 07:15:00,
2013-04-28 02:20:00,53.9,49.8,29.99,North,5,0.0,0.0,86,0.00,,---,0.00,VWS V14.00,2013-04-28 07:20:00,
2013-04-28 02:25:00,53.8,49.7,29.99,North,5,0.0,0.0,86,0.00,,---,0.00,VWS V14.00,2013-04-28 07:25:00,
2013-04-28 02:30:00,53.8,49.7,29.99,North,5,0.0,0.0,86,0.00,,---,0.00,VWS V14.00,2013-04-28 07:30:00,
2013-04-28 02:35:00,53.8,49.7,29.99,North,5,0.0,0.0,86,0.00,,---,0.00,VWS V14.00,2013-04-28 07:35:00,
2013-04-28 02:40:00,53.7,49.6,29.99,North,5,0.0,0.0,86,0.00,,---,0.00,VWS V14.00,2013-04-28 07:40:00,
2013-04-28 02:45:00,53.7,49.6,29.99,North,5,0.0,0.0,86,0.00,,---,0.00,VWS V14.00,2013-04-28 07:45:00,
2013-04-28 02:50:00,53.7,49.6,29.98,North,5,0.0,0.0,86,0.00,,---,0.00,VWS V14.00,2013-04-28 07:50:00,
2013-04-28 02:55:00,53.7,49.6,29.98,North,5,0.0,0.0,86,0.00,,---,0.00,VWS V14.00,2013-04-28 07:55:00,
2013-04-28 03:00:00,53.7,49.6,29.98,North,5,0.0,0.0,86,0.00,,---,0.00,VWS V14.00,2013-04-28 08:00:00,
2013-04-28 03:05:00,53.7,49.6,29.98,North,5,0.0,0.0,86,0.00,,---,0.00,VWS V14.00,2013-04-28 08:05:00,
2013-04-28 03:10:00,53.7,49.6,29.98,North,5,0.0,0.0,86,0.00,,---,0.00,VWS V14.00,2013-04-28 08:10:00,
2013-04-28 03:15:00,53.6,49.5,29.98,North,5,0.0,0.0,86,0.00,,---,0.00,VWS V14.00,2013-04-28 08:15:00,
2013-04-28 03:20:00,53.6,49.5,29.98,North,5,0.0,0.0,86,0.00,,---,0.00,VWS V14.00,2013-04-28 08:20:00,
2013-04-28 03:25:00,53.6,49.5,29.98,North,5,0.0,0.0,86,0.00,,---,0.00,VWS V14.00,2013-04-28 08:25:00,
2013-04-28 03:30:00,53.5,49.4,29.99,North,5,0.0,0.0,86,0.00,,---,0.00,VWS V14.00,2013-04-28 08:30:00,
2013-04-28 03:35:00,53.5,49.4,29.99,North,5,0.0,0.0,86,0.00,,---,0.00,VWS V14.00,2013-04-28 08:35:00,
2013-04-28 03:40:00,53.5,49.4,29.99,North,5,0.0,0.0,86,0.00,,---,0.00,VWS V14.00,2013-04-28 08:40:00,
2013-04-28 03:45:00,53.5,49.4,29.99,North,5,0.0,0.0,86,0.00,,---,0.00,VWS V14.00,2013-04-28 08:45:00,
2013-04-28 03:50:00,53.4,49.3,29.99,North,5,0.0,0.0,86,0.00,,---,0.00,VWS V14.00,2013-04-28 08:50:00,
2013-04-28 03:55:00,53.4,49.3,29.99,North,5,0.0,0.0,86,0.00,,---,0.00,VWS V14.00,2013-04-28 08:55:00,
2013-04-28 04:00:00,53.5,49.4,29.99,North,5,0.0,0.0,86,0.00,,---,0.00,VWS V14.00,2013-04-28 09:00:00,
2013-04-28 04:05:00,53.5,49.4,29.99,North,5,0.0,0.0,86,0.00,,---,0.00,VWS V14.00,2013-04-28 09:05:00,
2013-04-28 04:10:00,53.4,49.3,29.99,North,5,0.0,0.0,86,0.00,,---,0.00,VWS V14.00,2013-04-28 09:10:00,
2013-04-28 04:15:00,53.3,49.5,29.99,North,5,0.0,0.0,87,0.00,,---,0.00,VWS V14.00,2013-04-28 09:15:00,
2013-04-28 04:20:00,53.2,49.4,29.99,North,5,0.0,0.0,87,0.00,,---,0.00,VWS V14.00,2013-04-28 09:20:00,
2013-04-28 04:25:00,53.1,49.3,29.99,North,5,0.0,0.0,87,0.00,,---,0.00,VWS V14.00,2013-04-28 09:25:00,
2013-04-28 04:30:00,52.9,49.1,29.99,North,5,0.0,0.0,87,0.00,,---,0.00,VWS V14.00,2013-04-28 09:30:00,
2013-04-28 04:35:00,52.7,49.0,29.98,North,5,0.0,0.0,87,0.00,,---,0.00,VWS V14.00,2013-04-28 09:35:00,
2013-04-28 04:40:00,52.4,48.7,29.98,North,5,0.0,0.0,87,0.00,,---,0.00,VWS V14.00,2013-04-28 09:40:00,
2013-04-28 04:45:00,52.1,48.4,29.98,North,5,0.0,0.0,87,0.00,,---,0.00,VWS V14.00,2013-04-28 09:45:00,
2013-04-28 04:50:00,51.4,47.7,29.98,North,5,0.0,0.0,87,0.00,,---,0.00,VWS V14.00,2013-04-28 09:50:00,
2013-04-28 04:55:00,51.1,47.4,29.98,North,5,0.0,0.0,87,0.00,,---,0.00,VWS V14.00,2013-04-28 09:55:00,
2013-04-28 05:00:00,50.8,47.1,29.98,North,5,0.0,0.0,87,0.00,,---,0.00,VWS V14.00,2013-04-28 10:00:00,
2013-04-28 05:05:00,50.6,47.2,29.98,North,5,0.0,0.0,88,0.00,,---,0.00,VWS V14.00,2013-04-28 10:05:00,
2013-04-28 05:10:00,50.6,47.2,29.98,North,5,0.0,0.0,88,0.00,,---,0.00,VWS V14.00,2013-04-28 10:10:00,
2013-04-28 05:15:00,50.6,47.5,29.98,North,5,0.0,0.0,89,0.00,,---,0.00,VWS V14.00,2013-04-28 10:15:00,
2013-04-28 05:20:00,50.5,47.4,29.98,North,5,0.0,0.0,89,0.00,,---,0.00,VWS V14.00,2013-04-28 10:20:00,
2013-04-28 05:25:00,50.5,47.4,29.98,North,5,0.0,0.0,89,0.00,,---,0.00,VWS V14.00,2013-04-28 10:25:00,
2013-04-28 05:30:00,50.5,47.4,29.98,North,5,0.0,0.0,89,0.00,,---,0.00,VWS V14.00,2013-04-28 10:30:00,
2013-04-28 05:35:00,50.4,47.3,29.99,North,5,0.0,0.0,89,0.00,,---,0.00,VWS V14.00,2013-04-28 10:35:00,
2013-04-28 05:40:00,50.2,47.1,29.99,North,5,0.0,0.0,89,0.00,,---,0.00,VWS V14.00,2013-04-28 10:40:00,
2013-04-28 05:45:00,50.1,47.0,29.99,North,5,0.0,0.0,89,0.00,,---,0.00,VWS V14.00,2013-04-28 10:45:00,
2013-04-28 05:50:00,49.9,46.8,29.99,North,5,0.0,0.0,89,0.00,,---,0.00,VWS V14.00,2013-04-28 10:50:00,
2013-04-28 05:55:00,49.7,46.6,29.99,North,5,0.0,0.0,89,0.00,,---,0.00,VWS V14.00,2013-04-28 10:55:00,
2013-04-28 06:00:00,49.6,46.8,29.99,North,5,0.0,0.0,90,0.00,,---,0.00,VWS V14.00,2013-04-28 11:00:00,
2013-04-28 06:05:00,49.5,46.7,29.99,North,5,0.0,0.0,90,0.00,,---,0.00,VWS V14.00,2013-04-28 11:05:00,
2013-04-28 06:10:00,49.4,46.6,30.00,North,5,0.0,0.0,90,0.00,,---,0.00,VWS V14.00,2013-04-28 11:10:00,
2013-04-28 06:15:00,49.2,46.4,30.00,North,5,0.0,0.0,90,0.00,,---,0.00,VWS V14.00,2013-04-28 11:15:00,
2013-04-28 06:20:00,49.2,46.4,30.00,North,5,0.0,0.0,90,0.00,,---,0.00,VWS V14.00,2013-04-28 11:20:00,
2013-04-28 06:25:00,49.1,46.3,30.00,North,5,0.0,0.0,90,0.00,,---,0.00,VWS V14.00,2013-04-28 11:25:00,
2013-04-28 06:30:00,49.1,46.3,30.00,North,5,0.0,0.0,90,0.00,,---,0.00,VWS V14.00,2013-04-28 11:30:00,
2013-04-28 06:35:00,49.0,46.2,30.01,North,5,0.0,0.0,90,0.00,,---,0.00,VWS V14.00,2013-04-28 11:35:00,
2013-04-28 06:40:00,49.0,46.5,30.01,North,5,0.0,0.0,91,0.00,,---,0.00,VWS V14.00,2013-04-28 11:40:00,
2013-04-28 06:45:00,49.0,46.5,30.00,North,5,0.0,0.0,91,0.00,,---,0.00,VWS V14.00,2013-04-28 11:45:00,
2013-04-28 06:50:00,48.9,46.4,30.01,North,5,0.0,0.0,91,0.00,,---,0.00,VWS V14.00,2013-04-28 11:50:00,
2013-04-28 06:55:00,48.8,46.3,30.01,North,5,0.0,0.0,91,0.00,,---,0.00,VWS V14.00,2013-04-28 11:55:00,
2013-04-28 07:00:00,48.8,46.3,30.01,North,5,0.0,0.0,91,0.00,,---,0.00,VWS V14.00,2013-04-28 12:00:00,
2013-04-28 07:05:00,48.8,46.3,30.01,North,5,0.0,0.0,91,0.00,,---,0.00,VWS V14.00,2013-04-28 12:05:00,
2013-04-28 07:10:00,48.7,46.2,30.01,North,5,0.0,0.0,91,0.00,,---,0.00,VWS V14.00,2013-04-28 12:10:00,
2013-04-28 07:15:00,48.8,46.3,30.01,North,5,0.0,0.0,91,0.00,,---,0.00,VWS V14.00,2013-04-28 12:15:00,
2013-04-28 07:20:00,48.8,46.3,30.01,North,5,0.0,0.0,91,0.00,,---,0.00,VWS V14.00,2013-04-28 12:20:00,
2013-04-28 07:25:00,48.9,46.7,30.01,North,5,0.0,0.0,92,0.00,,---,0.00,VWS V14.00,2013-04-28 12:25:00,
2013-04-28 07:30:00,49.1,46.9,30.01,North,5,0.0,0.0,92,0.00,,---,0.00,VWS V14.00,2013-04-28 12:30:00,
2013-04-28 07:35:00,49.2,47.0,30.01,North,9,0.0,0.0,92,0.00,,---,0.00,VWS V14.00,2013-04-28 12:35:00,
2013-04-28 07:40:00,49.5,47.3,30.01,North,9,0.0,0.0,92,0.00,,---,0.00,VWS V14.00,2013-04-28 12:40:00,
2013-04-28 07:45:00,49.9,47.7,30.01,North,9,0.0,0.0,92,0.00,,---,0.00,VWS V14.00,2013-04-28 12:45:00,
2013-04-28 07:50:00,50.3,48.1,30.01,NE,40,0.0,0.0,92,0.00,,---,0.00,VWS V14.00,2013-04-28 12:50:00,
2013-04-28 07:55:00,50.8,48.6,30.01,NE,40,0.0,0.0,92,0.00,,---,0.00,VWS V14.00,2013-04-28 12:55:00,
2013-04-28 08:00:00,51.1,48.9,30.01,NE,40,0.0,0.0,92,0.00,,---,0.00,VWS V14.00,2013-04-28 13:00:00,
2013-04-28 08:05:00,51.5,49.3,30.01,NE,40,0.0,0.0,92,0.00,,---,0.00,VWS V14.00,2013-04-28 13:05:00,
2013-04-28 08:10:00,51.9,49.9,30.01,NE,41,0.0,0.0,93,0.00,,---,0.00,VWS V14.00,2013-04-28 13:10:00,
2013-04-28 08:15:00,52.3,50.0,30.01,NE,45,0.0,0.0,92,0.00,,---,0.00,VWS V14.00,2013-04-28 13:15:00,
2013-04-28 08:20:00,52.6,50.3,30.01,NE,51,0.0,0.0,92,0.00,,---,0.00,VWS V14.00,2013-04-28 13:20:00,
2013-04-28 08:25:00,52.9,50.6,30.01,ENE,61,0.0,0.0,92,0.00,,---,0.00,VWS V14.00,2013-04-28 13:25:00,
2013-04-28 08:30:00,53.2,50.9,30.00,ENE,73,0.0,0.0,92,0.00,,---,0.00,VWS V14.00,2013-04-28 13:30:00,
2013-04-28 08:35:00,53.5,51.2,30.00,East,80,0.0,0.0,92,0.00,,---,0.00,VWS V14.00,2013-04-28 13:35:00,
2013-04-28 08:40:00,53.9,51.3,30.00,East,82,0.0,0.0,91,0.00,,---,0.00,VWS V14.00,2013-04-28 13:40:00,
2013-04-28 08:45:00,54.3,51.7,30.00,East,86,0.0,0.0,91,0.00,,---,0.00,VWS V14.00,2013-04-28 13:45:00,
2013-04-28 08:50:00,54.8,51.9,30.00,East,90,0.0,0.0,90,0.00,,---,0.00,VWS V14.00,2013-04-28 13:50:00,
2013-04-28 08:55:00,55.3,52.4,30.00,East,90,0.0,0.0,90,0.00,,---,0.00,VWS V14.00,2013-04-28 13:55:00,
2013-04-28 09:00:00,55.7,52.5,30.00,East,92,0.0,0.0,89,0.00,,---,0.00,VWS V14.00,2013-04-28 14:00:00,
2013-04-28 09:05:00,56.2,52.7,29.99,East,99,0.0,0.0,88,0.00,,---,0.00,VWS V14.00,2013-04-28 14:05:00,
2013-04-28 09:10:00,56.6,52.5,29.99,SE,126,0.0,0.0,86,0.00,,---,0.00,VWS V14.00,2013-04-28 14:10:00,
2013-04-28 09:15:00,57.1,52.6,29.99,SSE,163,0.0,0.0,85,0.00,,---,0.00,VWS V14.00,2013-04-28 14:15:00,
2013-04-28 09:20:00,57.5,52.7,29.99,SSE,167,0.0,0.0,84,0.00,,---,0.00,VWS V14.00,2013-04-28 14:20:00,
2013-04-28 09:25:00,57.9,52.8,29.99,South,175,0.0,0.0,83,0.00,,---,0.00,VWS V14.00,2013-04-28 14:25:00,
2013-04-28 09:30:00,58.2,52.7,29.99,South,178,0.0,0.0,82,0.00,,---,0.00,VWS V14.00,2013-04-28 14:30:00,
2013-04-28 09:35:00,58.5,52.7,29.99,South,190,0.0,0.0,81,0.00,,---,0.00,VWS V14.00,2013-04-28 14:35:00,
2013-04-28 09:40:00,59.0,53.2,29.99,South,190,0.0,0.0,81,0.00,,---,0.00,VWS V14.00,2013-04-28 14:40:00,
2013-04-28 09:45:00,59.0,52.8,29.99,South,190,2.0,3.0,80,0.00,,---,0.00,VWS V14.00,2013-04-28 14:45:00,
2013-04-28 09:50:00,59.3,52.8,29.99,South,190,4.0,5.0,79,0.00,,---,0.00,VWS V14.00,2013-04-28 14:50:00,
2013-04-28 09:55:00,59.7,52.8,29.99,South,190,2.0,7.0,78,0.00,,---,0.00,VWS V14.00,2013-04-28 14:55:00,
2013-04-28 10:00:00,60.0,53.1,29.99,South,190,4.0,6.0,78,0.00,,---,0.00,VWS V14.00,2013-04-28 15:00:00,
2013-04-28 10:05:00,60.4,53.2,29.99,SSW,195,2.0,6.0,77,0.00,,---,0.00,VWS V14.00,2013-04-28 15:05:00,
2013-04-28 10:10:00,60.7,53.5,29.99,SSW,195,0.0,2.0,77,0.00,,---,0.00,VWS V14.00,2013-04-28 15:10:00,
2013-04-28 10:15:00,61.3,54.4,29.99,SSW,195,1.0,5.0,78,0.00,,---,0.00,VWS V14.00,2013-04-28 15:15:00,
2013-04-28 10:20:00,61.8,54.5,29.99,SSW,195,0.0,0.0,77,0.00,,---,0.00,VWS V14.00,2013-04-28 15:20:00,
2013-04-28 10:25:00,62.1,54.1,29.99,SSW,195,4.0,4.0,75,0.00,,---,0.00,VWS V14.00,2013-04-28 15:25:00,
2013-04-28 10:30:00,62.3,54.3,29.98,SSW,195,4.0,5.0,75,0.00,,---,0.00,VWS V14.00,2013-04-28 15:30:00,
2013-04-28 10:35:00,62.5,54.1,29.98,SSW,195,5.0,7.0,74,0.00,,---,0.00,VWS V14.00,2013-04-28 15:35:00,
2013-04-28 10:40:00,62.5,54.1,29.98,SSW,195,1.0,5.0,74,0.00,,---,0.00,VWS V14.00,2013-04-28 15:40:00,
2013-04-28 10:45:00,62.7,54.3,29.98,SSW,195,0.0,5.0,74,0.00,,---,0.00,VWS V14.00,2013-04-28 15:45:00,
2013-04-28 10:50:00,63.5,55.4,29.98,SSW,195,0.0,3.0,75,0.00,,---,0.00,VWS V14.00,2013-04-28 15:50:00,
2013-04-28 10:55:00,63.8,55.0,29.98,SSW,197,2.0,7.0,73,0.00,,---,0.00,VWS V14.00,2013-04-28 15:55:00,
2013-04-28 11:00:00,64.0,55.2,29.98,SSW,197,0.0,5.0,73,0.00,,---,0.00,VWS V14.00,2013-04-28 16:00:00,
2013-04-28 11:05:00,64.4,55.6,29.98,SSW,197,1.0,3.0,73,0.00,,---,0.00,VWS V14.00,2013-04-28 16:05:00,
2013-04-28 11:10:00,64.6,55.4,29.98,SSW,203,6.0,8.0,72,0.00,,---,0.00,VWS V14.00,2013-04-28 16:10:00,
2013-04-28 11:15:00,64.7,55.1,29.98,SSW,207,4.0,10.0,71,0.00,,---,0.00,VWS V14.00,2013-04-28 16:15:00,
2013-04-28 11:20:00,65.0,56.2,29.97,SSW,207,2.0,6.0,73,0.00,,---,0.00,VWS V14.00,2013-04-28 16:20:00,
2013-04-28 11:25:00,65.4,56.2,29.97,SSW,207,4.0,6.0,72,0.00,,---,0.00,VWS V14.00,2013-04-28 16:25:00,
2013-04-28 11:30:00,65.9,56.2,29.97,SSW,207,2.0,5.0,71,0.00,,---,0.00,VWS V14.00,2013-04-28 16:30:00,
2013-04-28 11:35:00,66.3,56.6,29.97,SSW,207,4.0,5.0,71,0.00,,---,0.00,VWS V14.00,2013-04-28 16:35:00,
2013-04-28 11:40:00,66.5,56.8,29.97,SSW,196,6.0,6.0,71,0.00,,---,0.00,VWS V14.00,2013-04-28 16:40:00,
2013-04-28 11:45:00,67.1,57.0,29.97,SSW,196,1.0,3.0,70,0.00,,---,0.00,VWS V14.00,2013-04-28 16:45:00,
2013-04-28 11:50:00,67.4,57.3,29.96,SSW,200,1.0,2.0,70,0.00,,---,0.00,VWS V14.00,2013-04-28 16:50:00,
2013-04-28 11:55:00,67.7,57.2,29.96,SW,219,6.0,13.0,69,0.00,,---,0.00,VWS V14.00,2013-04-28 16:55:00,
2013-04-28 12:00:00,67.6,56.7,29.96,SW,220,1.0,4.0,68,0.00,,---,0.00,VWS V14.00,2013-04-28 17:00:00,
2013-04-28 12:05:00,67.8,56.9,29.96,SW,220,0.0,6.0,68,0.00,,---,0.00,VWS V14.00,2013-04-28 17:05:00,
2013-04-28 12:10:00,68.2,58.0,29.95,SW,220,1.0,5.0,70,0.00,,---,0.00,VWS V14.00,2013-04-28 17:10:00,
2013-04-28 12:15:00,68.4,57.0,29.95,SW,229,11.0,11.0,67,0.00,,---,0.00,VWS V14.00,2013-04-28 17:15:00,
2013-04-28 12:20:00,68.6,57.2,29.95,SW,233,6.0,7.0,67,0.00,,---,0.00,VWS V14.00,2013-04-28 17:20:00,
2013-04-28 12:25:00,68.8,57.8,29.95,WSW,238,4.0,13.0,68,0.00,,---,0.00,VWS V14.00,2013-04-28 17:25:00,
2013-04-28 12:30:00,69.0,57.6,29.95,WSW,239,7.0,10.0,67,0.00,,---,0.00,VWS V14.00,2013-04-28 17:30:00,
2013-04-28 12:35:00,69.1,56.8,29.94,WSW,246,5.0,9.0,65,0.00,,---,0.00,VWS V14.00,2013-04-28 17:35:00,
2013-04-28 12:40:00,69.5,57.7,29.94,South,186,5.0,11.0,66,0.00,,---,0.00,VWS V14.00,2013-04-28 17:40:00,
2013-04-28 12:45:00,70.0,58.1,29.94,SSW,201,5.0,5.0,66,0.00,,---,0.00,VWS V14.00,2013-04-28 17:45:00,
2013-04-28 12:50:00,70.1,56.5,29.93,SSW,200,2.0,7.0,62,0.00,,---,0.00,VWS V14.00,2013-04-28 17:50:00,
2013-04-28 12:55:00,70.7,58.4,29.93,SW,229,9.0,11.0,65,0.00,,---,0.00,VWS V14.00,2013-04-28 17:55:00,
2013-04-28 13:00:00,70.9,56.8,29.93,West,261,5.0,9.0,61,0.00,,---,0.00,VWS V14.00,2013-04-28 18:00:00,
2013-04-28 13:05:00,71.0,56.9,29.92,West,263,5.0,7.0,61,0.00,,---,0.00,VWS V14.00,2013-04-28 18:05:00,
2013-04-28 13:10:00,71.3,58.1,29.92,WSW,252,0.0,6.0,63,0.00,,---,0.00,VWS V14.00,2013-04-28 18:10:00,
2013-04-28 13:15:00,71.7,58.0,29.92,South,174,4.0,10.0,62,0.00,,---,0.00,VWS V14.00,2013-04-28 18:15:00,
2013-04-28 13:20:00,72.3,58.1,29.92,South,186,5.0,10.0,61,0.00,,---,0.00,VWS V14.00,2013-04-28 18:20:00,
2013-04-28 13:25:00,72.7,57.6,29.92,South,178,0.0,7.0,59,0.00,,---,0.00,VWS V14.00,2013-04-28 18:25:00,
2013-04-28 13:30:00,73.1,58.4,29.92,South,173,6.0,6.0,60,0.00,,---,0.00,VWS V14.00,2013-04-28 18:30:00,
2013-04-28 13:35:00,73.5,58.8,29.91,South,173,0.0,3.0,60,0.00,,---,0.00,VWS V14.00,2013-04-28 18:35:00,
2013-04-28 13:40:00,73.7,56.0,29.91,SSW,198,1.0,11.0,54,0.00,,---,0.00,VWS V14.00,2013-04-28 18:40:00,
2013-04-28 13:45:00,73.9,57.2,29.90,SSW,201,4.0,7.0,56,0.00,,---,0.00,VWS V14.00,2013-04-28 18:45:00,
2013-04-28 13:50:00,74.1,56.9,29.90,SW,230,1.0,7.0,55,0.00,,---,0.00,VWS V14.00,2013-04-28 18:50:00,
2013-04-28 13:55:00,74.0,56.3,29.90,SW,236,0.0,4.0,54,0.00,,---,0.00,VWS V14.00,2013-04-28 18:55:00,
2013-04-28 14:00:00,74.3,57.1,29.90,SW,230,0.0,6.0,55,0.00,,---,0.00,VWS V14.00,2013-04-28 19:00:00,
2013-04-28 14:05:00,74.6,58.9,29.90,SSE,150,6.0,11.0,58,0.00,,---,0.00,VWS V14.00,2013-04-28 19:05:00,
2013-04-28 14:10:00,74.6,57.9,29.89,SE,143,6.0,9.0,56,0.00,,---,0.00,VWS V14.00,2013-04-28 19:10:00,
2013-04-28 14:15:00,74.7,58.0,29.89,SSE,163,6.0,9.0,56,0.00,,---,0.00,VWS V14.00,2013-04-28 19:15:00,
2013-04-28 14:20:00,74.9,57.7,29.89,SSE,163,4.0,6.0,55,0.00,,---,0.00,VWS V14.00,2013-04-28 19:20:00,
2013-04-28 14:25:00,75.1,57.3,29.89,SSE,147,2.0,6.0,54,0.00,,---,0.00,VWS V14.00,2013-04-28 19:25:00,
2013-04-28 14:30:00,75.1,57.8,29.89,SE,134,2.0,6.0,55,0.00,,---,0.00,VWS V14.00,2013-04-28 19:30:00,
2013-04-28 14:35:00,75.5,56.7,29.89,SE,140,5.0,9.0,52,0.00,,---,0.00,VWS V14.00,2013-04-28 19:35:00,
2013-04-28 14:40:00,76.0,58.2,29.88,SE,146,6.0,9.0,54,0.00,,---,0.00,VWS V14.00,2013-04-28 19:40:00,
2013-04-28 14:45:00,76.2,57.3,29.88,SSE,153,1.0,4.0,52,0.00,,---,0.00,VWS V14.00,2013-04-28 19:45:00,
2013-04-28 14:50:00,76.4,58.0,29.88,ESE,117,4.0,9.0,53,0.00,,---,0.00,VWS V14.00,2013-04-28 19:50:00,
2013-04-28 14:55:00,76.9,59.0,29.88,ESE,119,0.0,5.0,54,0.00,,---,0.00,VWS V14.00,2013-04-28 19:55:00,
2013-04-28 15:00:00,77.3,58.3,29.87,ESE,119,4.0,6.0,52,0.00,,---,0.00,VWS V14.00,2013-04-28 20:00:00,
2013-04-28 15:05:00,77.6,57.5,29.87,SE,130,2.0,9.0,50,0.00,,---,0.00,VWS V14.00,2013-04-28 20:05:00,
2013-04-28 15:10:00,77.8,57.7,29.87,SE,136,2.0,7.0,50,0.00,,---,0.00,VWS V14.00,2013-04-28 20:10:00,
2013-04-28 15:15:00,77.8,58.8,29.87,SSW,202,3.0,14.0,52,0.00,,---,0.00,VWS V14.00,2013-04-28 20:15:00,
2013-04-28 15:20:00,77.9,58.9,29.86,South,190,7.0,10.0,52,0.00,,---,0.00,VWS V14.00,2013-04-28 20:20:00,
2013-04-28 15:25:00,78.2,58.6,29.86,South,188,0.0,4.0,51,0.00,,---,0.00,VWS V14.00,2013-04-28 20:25:00,
2013-04-28 15:30:00,78.5,58.9,29.85,South,188,6.0,7.0,51,0.00,,---,0.00,VWS V14.00,2013-04-28 20:30:00,
2013-04-28 15:35:00,78.7,58.0,29.85,South,189,4.0,6.0,49,0.00,,---,0.00,VWS V14.00,2013-04-28 20:35:00,
2013-04-28 15:40:00,78.7,59.1,29.85,South,188,2.0,5.0,51,0.00,,---,0.00,VWS V14.00,2013-04-28 20:40:00,
2013-04-28 15:45:00,78.9,58.1,29.85,South,174,5.0,7.0,49,0.00,,---,0.00,VWS V14.00,2013-04-28 20:45:00,
2013-04-28 15:50:00,78.9,59.8,29.84,South,173,5.0,5.0,52,0.00,,---,0.00,VWS V14.00,2013-04-28 20:50:00,
2013-04-28 15:55:00,78.8,57.5,29.84,SSE,168,3.0,6.0,48,0.00,,---,0.00,VWS V14.00,2013-04-28 20:55:00,
2013-04-28 16:00:00,78.5,57.2,29.84,SE,141,2.0,5.0,48,0.00,,---,0.00,VWS V14.00,2013-04-28 21:00:00,
2013-04-28 16:05:00,78.5,58.3,29.84,SE,135,0.0,4.0,50,0.00,,---,0.00,VWS V14.00,2013-04-28 21:05:00,
2013-04-28 16:10:00,78.7,57.4,29.83,SE,131,4.0,7.0,48,0.00,,---,0.00,VWS V14.00,2013-04-28 21:10:00,
2013-04-28 16:15:00,78.6,57.9,29.83,SE,130,4.0,5.0,49,0.00,,---,0.00,VWS V14.00,2013-04-28 21:15:00,
2013-04-28 16:20:00,78.9,58.7,29.83,SE,130,3.0,4.0,50,0.00,,---,0.00,VWS V14.00,2013-04-28 21:20:00,
2013-04-28 16:25:00,79.4,58.6,29.82,SE,131,2.0,6.0,49,0.00,,---,0.00,VWS V14.00,2013-04-28 21:25:00,
2013-04-28 16:30:00,79.9,56.7,29.82,South,191,3.0,11.0,45,0.00,,---,0.00,VWS V14.00,2013-04-28 21:30:00,
2013-04-28 16:35:00,80.2,58.2,29.82,South,191,2.0,5.0,47,0.00,,---,0.00,VWS V14.00,2013-04-28 21:35:00,
2013-04-28 16:40:00,80.3,57.7,29.82,South,169,6.0,13.0,46,0.00,,---,0.00,VWS V14.00,2013-04-28 21:40:00,
2013-04-28 16:45:00,80.3,57.0,29.82,SSE,155,2.0,4.0,45,0.00,,---,0.00,VWS V14.00,2013-04-28 21:45:00,
2013-04-28 16:50:00,80.4,56.5,29.82,WSW,240,6.0,12.0,44,0.00,,---,0.00,VWS V14.00,2013-04-28 21:50:00,
2013-04-28 16:55:00,80.4,55.9,29.82,South,182,5.0,9.0,43,0.00,,---,0.00,VWS V14.00,2013-04-28 21:55:00,
2013-04-28 17:00:00,80.5,57.2,29.82,South,180,5.0,5.0,45,0.00,,---,0.00,VWS V14.00,2013-04-28 22:00:00,
2013-04-28 17:05:00,80.6,56.1,29.81,SSE,154,4.0,13.0,43,0.00,,---,0.00,VWS V14.00,2013-04-28 22:05:00,
2013-04-28 17:10:00,80.6,56.1,29.81,South,177,5.0,11.0,43,0.00,,---,0.00,VWS V14.00,2013-04-28 22:10:00,
2013-04-28 17:15:00,80.7,56.8,29.81,SSW,194,7.0,12.0,44,0.00,,---,0.00,VWS V14.00,2013-04-28 22:15:00,
2013-04-28 17:20:00,80.7,55.5,29.81,South,180,5.0,8.0,42,0.00,,---,0.00,VWS V14.00,2013-04-28 22:20:00,
2013-04-28 17:25:00,80.8,57.5,29.81,SSE,161,3.0,9.0,45,0.00,,---,0.00,VWS V14.00,2013-04-28 22:25:00,
2013-04-28 17:30:00,80.9,56.3,29.81,SSE,153,6.0,10.0,43,0.00,,---,0.00,VWS V14.00,2013-04-28 22:30:00,
2013-04-28 17:35:00,80.9,55.0,29.80,South,169,9.0,12.0,41,0.00,,---,0.00,VWS V14.00,2013-04-28 22:35:00,
2013-04-28 17:40:00,80.8,55.6,29.80,SSE,152,4.0,11.0,42,0.00,,---,0.00,VWS V14.00,2013-04-28 22:40:00,
2013-04-28 17:45:00,80.8,54.9,29.80,SSE,167,6.0,11.0,41,0.00,,---,0.00,VWS V14.00,2013-04-28 22:45:00,
2013-04-28 17:50:00,80.7,55.5,29.80,SSE,148,4.0,8.0,42,0.00,,---,0.00,VWS V14.00,2013-04-28 22:50:00,
2013-04-28 17:55:00,80.7,56.8,29.80,SSE,153,6.0,13.0,44,0.00,,---,0.00,VWS V14.00,2013-04-28 22:55:00,
2013-04-28 18:00:00,80.7,56.2,29.80,SSE,161,7.0,11.0,43,0.00,,---,0.00,VWS V14.00,2013-04-28 23:00:00,
2013-04-28 18:05:00,80.6,56.1,29.80,SSE,157,4.0,9.0,43,0.00,,---,0.00,VWS V14.00,2013-04-28 23:05:00,
2013-04-28 18:10:00,80.5,56.0,29.80,SE,134,9.0,12.0,43,0.00,,---,0.00,VWS V14.00,2013-04-28 23:10:00,
2013-04-28 18:15:00,80.2,60.5,29.79,ESE,109,10.0,13.0,51,0.00,,---,0.00,VWS V14.00,2013-04-28 23:15:00,
2013-04-28 18:20:00,79.2,60.6,29.80,SE,133,11.0,14.0,53,0.00,,---,0.00,VWS V14.00,2013-04-28 23:20:00,
2013-04-28 18:25:00,78.5,59.4,29.80,SE,130,9.0,13.0,52,0.00,,---,0.00,VWS V14.00,2013-04-28 23:25:00,
2013-04-28 18:30:00,78.0,60.0,29.80,ESE,114,11.0,16.0,54,0.00,,---,0.00,VWS V14.00,2013-04-28 23:30:00,
2013-04-28 18:35:00,77.5,59.6,29.79,ESE,113,7.0,14.0,54,0.00,,---,0.00,VWS V14.00,2013-04-28 23:35:00,
2013-04-28 18:40:00,77.2,59.8,29.79,SE,139,11.0,14.0,55,0.00,,---,0.00,VWS V14.00,2013-04-28 23:40:00,
2013-04-28 18:45:00,76.9,59.5,29.80,ESE,119,7.0,13.0,55,0.00,,---,0.00,VWS V14.00,2013-04-28 23:45:00,
2013-04-28 18:50:00,76.6,59.8,29.79,ESE,119,11.0,13.0,56,0.00,,---,0.00,VWS V14.00,2013-04-28 23:50:00,
2013-04-28 18:55:00,76.3,60.0,29.79,ESE,112,11.0,13.0,57,0.00,,---,0.00,VWS V14.00,2013-04-28 23:55:00,
2013-04-28 19:00:00,76.0,60.2,29.79,ESE,117,7.0,13.0,58,0.00,,---,0.00,VWS V14.00,2013-04-29 00:00:00,
2013-04-28 19:05:00,75.8,59.5,29.79,SE,128,7.0,13.0,57,0.00,,---,0.00,VWS V14.00,2013-04-29 00:05:00,
2013-04-28 19:10:00,75.5,59.7,29.80,ESE,117,7.0,11.0,58,0.00,,---,0.00,VWS V14.00,2013-04-29 00:10:00,
2013-04-28 19:15:00,75.2,59.4,29.80,ESE,116,4.0,10.0,58,0.00,,---,0.00,VWS V14.00,2013-04-29 00:15:00,
2013-04-28 19:20:00,74.8,59.0,29.80,ESE,120,12.0,12.0,58,0.00,,---,0.00,VWS V14.00,2013-04-29 00:20:00,
2013-04-28 19:25:00,74.4,58.7,29.80,ESE,118,7.0,10.0,58,0.00,,---,0.00,VWS V14.00,2013-04-29 00:25:00,
2013-04-28 19:30:00,74.0,58.8,29.80,ESE,118,6.0,11.0,59,0.00,,---,0.00,VWS V14.00,2013-04-29 00:30:00,
2013-04-28 19:35:00,73.7,59.0,29.80,ESE,121,7.0,11.0,60,0.00,,---,0.00,VWS V14.00,2013-04-29 00:35:00,
2013-04-28 19:40:00,73.3,58.6,29.80,ESE,118,6.0,10.0,60,0.00,,---,0.00,VWS V14.00,2013-04-29 00:40:00,
2013-04-28 19:45:00,73.0,58.3,29.80,ESE,121,6.0,12.0,60,0.00,,---,0.00,VWS V14.00,2013-04-29 00:45:00,
2013-04-28 19:50:00,72.6,57.9,29.80,ESE,123,5.0,10.0,60,0.00,,---,0.00,VWS V14.00,2013-04-29 00:50:00,
2013-04-28 19:55:00,72.3,58.1,29.79,ESE,123,5.0,9.0,61,0.00,,---,0.00,VWS V14.00,2013-04-29 00:55:00,
2013-04-28 20:00:00,72.0,57.8,29.80,ESE,123,4.0,7.0,61,0.00,,---,0.00,VWS V14.00,2013-04-29 01:00:00,
2013-04-28 20:05:00,71.6,57.9,29.79,ESE,123,4.0,9.0,62,0.00,,---,0.00,VWS V14.00,2013-04-29 01:05:00,
2013-04-28 20:10:00,71.2,57.5,29.80,ESE,123,5.0,6.0,62,0.00,,---,0.00,VWS V14.00,2013-04-29 01:10:00,
2013-04-28 20:15:00,70.7,57.5,29.80,ESE,123,4.0,5.0,63,0.00,,---,0.00,VWS V14.00,2013-04-29 01:15:00,
2013-04-28 20:20:00,70.3,57.1,29.79,ESE,123,4.0,6.0,63,0.00,,---,0.00,VWS V14.00,2013-04-29 01:20:00,
2013-04-28 20:25:00,69.8,57.1,29.80,ESE,123,4.0,6.0,64,0.00,,---,0.00,VWS V14.00,2013-04-29 01:25:00,
2013-04-28 20:30:00,69.5,56.8,29.80,SE,124,6.0,8.0,64,0.00,,---,0.00,VWS V14.00,2013-04-29 01:30:00,
2013-04-28 20:35:00,69.3,56.6,29.80,SE,126,6.0,7.0,64,0.00,,---,0.00,VWS V14.00,2013-04-29 01:35:00,
2013-04-28 20:40:00,69.0,56.8,29.80,SE,126,5.0,8.0,65,0.00,,---,0.00,VWS V14.00,2013-04-29 01:40:00,
2013-04-28 20:45:00,68.9,56.7,29.80,SE,128,6.0,7.0,65,0.00,,---,0.00,VWS V14.00,2013-04-29 01:45:00,
2013-04-28 20:50:00,68.7,56.9,29.80,SE,128,6.0,7.0,66,0.00,,---,0.00,VWS V14.00,2013-04-29 01:50:00,
2013-04-28 20:55:00,68.5,56.7,29.80,SE,130,7.0,9.0,66,0.00,,---,0.00,VWS V14.00,2013-04-29 01:55:00,
2013-04-28 21:00:00,68.3,56.9,29.80,SE,130,4.0,9.0,67,0.00,,---,0.00,VWS V14.00,2013-04-29 02:00:00,
2013-04-28 21:05:00,68.1,56.7,29.80,SE,130,5.0,9.0,67,0.00,,---,0.00,VWS V14.00,2013-04-29 02:05:00,
2013-04-28 21:10:00,67.9,56.5,29.80,SE,131,6.0,10.0,67,0.00,,---,0.00,VWS V14.00,2013-04-29 02:10:00,
2013-04-28 21:15:00,67.7,56.4,29.80,SE,132,6.0,10.0,67,0.00,,---,0.00,VWS V14.00,2013-04-29 02:15:00,
2013-04-28 21:20:00,67.6,56.7,29.80,SE,132,5.0,8.0,68,0.00,,---,0.00,VWS V14.00,2013-04-29 02:20:00,
2013-04-28 21:25:00,67.4,56.5,29.81,SE,133,6.0,9.0,68,0.00,,---,0.00,VWS V14.00,2013-04-29 02:25:00,
2013-04-28 21:30:00,67.3,56.4,29.81,SE,134,6.0,8.0,68,0.00,,---,0.00,VWS V14.00,2013-04-29 02:30:00,
2013-04-28 21:35:00,67.2,56.3,29.81,SE,134,4.0,7.0,68,0.00,,---,0.00,VWS V14.00,2013-04-29 02:35:00,
2013-04-28 21:40:00,67.1,56.2,29.81,SE,134,4.0,6.0,68,0.00,,---,0.00,VWS V14.00,2013-04-29 02:40:00,
2013-04-28 21:45:00,67.0,56.1,29.82,SE,134,3.0,8.0,68,0.00,,---,0.00,VWS V14.00,2013-04-29 02:45:00,
2013-04-28 21:50:00,66.9,56.0,29.82,SE,134,4.0,7.0,68,0.00,,---,0.00,VWS V14.00,2013-04-29 02:50:00,
2013-04-28 21:55:00,66.8,56.3,29.82,SE,133,6.0,10.0,69,0.00,,---,0.00,VWS V14.00,2013-04-29 02:55:00,
2013-04-28 22:00:00,66.7,56.6,29.82,SE,135,8.0,9.0,70,0.00,,---,0.00,VWS V14.00,2013-04-29 03:00:00,
2013-04-28 22:05:00,66.7,56.6,29.82,SE,134,11.0,12.0,70,0.00,,---,0.00,VWS V14.00,2013-04-29 03:05:00,
2013-04-28 22:10:00,66.6,56.9,29.82,SE,136,6.0,10.0,71,0.00,,---,0.00,VWS V14.00,2013-04-29 03:10:00,
2013-04-28 22:15:00,66.5,56.8,29.81,SE,136,6.0,10.0,71,0.00,,---,0.00,VWS V14.00,2013-04-29 03:15:00,
2013-04-28 22:20:00,66.4,56.7,29.81,SE,141,5.0,10.0,71,0.00,,---,0.00,VWS V14.00,2013-04-29 03:20:00,
2013-04-28 22:25:00,66.2,56.9,29.82,SE,143,5.0,9.0,72,0.00,,---,0.00,VWS V14.00,2013-04-29 03:25:00,
2013-04-28 22:30:00,66.1,56.8,29.82,SE,144,6.0,9.0,72,0.00,,---,0.00,VWS V14.00,2013-04-29 03:30:00,
2013-04-28 22:35:00,65.9,56.6,29.82,SE,142,4.0,11.0,72,0.00,,---,0.00,VWS V14.00,2013-04-29 03:35:00,
2013-04-28 22:40:00,65.8,56.9,29.82,SE,144,6.0,7.0,73,0.00,,---,0.00,VWS V14.00,2013-04-29 03:40:00,
2013-04-28 22:45:00,65.7,56.8,29.82,SE,142,4.0,7.0,73,0.00,,---,0.00,VWS V14.00,2013-04-29 03:45:00,
2013-04-28 22:50:00,65.5,56.6,29.82,SE,141,5.0,7.0,73,0.00,,---,0.00,VWS V14.00,2013-04-29 03:50:00,
2013-04-28 22:55:00,65.3,56.4,29.82,SE,141,3.0,5.0,73,0.00,,---,0.00,VWS V14.00,2013-04-29 03:55:00,
2013-04-28 23:00:00,65.1,56.6,29.82,SE,142,4.0,7.0,74,0.00,,---,0.00,VWS V14.00,2013-04-29 04:00:00,
2013-04-28 23:01:00,65.1,56.6,29.81,SE,142,5.0,7.0,74,0.00,,---,0.00,VWS V14.00,2013-04-29 04:01:00,
2013-04-28 23:06:00,64.9,56.4,29.82,SE,142,3.0,6.0,74,0.00,,---,0.00,VWS V14.00,2013-04-29 04:06:00,
2013-04-28 23:11:00,64.8,56.3,29.82,SE,142,2.0,5.0,74,0.00,,---,0.00,VWS V14.00,2013-04-29 04:11:00,
2013-04-28 23:16:00,64.6,56.5,29.81,SE,142,2.0,5.0,75,0.00,,---,0.00,VWS V14.00,2013-04-29 04:16:00,
2013-04-28 23:21:00,64.4,56.3,29.81,SE,142,1.0,4.0,75,0.00,,---,0.00,VWS V14.00,2013-04-29 04:21:00,
2013-04-28 23:26:00,64.2,56.1,29.81,SE,142,3.0,5.0,75,0.00,,---,0.00,VWS V14.00,2013-04-29 04:26:00,
2013-04-28 23:31:00,64.0,55.9,29.81,SE,142,1.0,3.0,75,0.00,,---,0.00,VWS V14.00,2013-04-29 04:31:00,
2013-04-28 23:36:00,63.8,56.1,29.81,SE,142,3.0,4.0,76,0.00,,---,0.00,VWS V14.00,2013-04-29 04:36:00,
2013-04-28 23:41:00,63.5,55.8,29.81,SE,142,3.0,4.0,76,0.00,,---,0.00,VWS V14.00,2013-04-29 04:41:00,
2013-04-28 23:46:00,63.3,55.6,29.81,SE,142,7.0,8.0,76,0.00,,---,0.00,VWS V14.00,2013-04-29 04:46:00,
2013-04-28 23:51:00,63.1,55.8,29.80,SE,142,3.0,5.0,77,0.00,,---,0.00,VWS V14.00,2013-04-29 04:51:00,
2013-04-28 23:56:00,62.9,55.6,29.81,SE,142,3.0,6.0,77,0.00,,---,0.00,VWS V14.00,2013-04-29 04:56:00,